Weather History for KSUX - November, 2013

Change the Weather History Date:

Wednesday, November 6, 2013

  Actual Average Record
Temperature  
Mean Temperature 35 °F 41 °F  
Max Temperature 42 °F 52 °F 80 °F (2004)
Min Temperature 28 °F 30 °F -3 °F (1991)
Degree Days  
Heating Degree Days 30 24  
Month to date heating degree days 138 135  
Since 1 July heating degree days 663 735  
Cooling Degree Days 0 0  
Month to date cooling degree days 0 0  
Year to date cooling degree days 960 869  
Moisture  
Dew Point 30 °F    
Average Humidity 81    
Maximum Humidity 92    
Minimum Humidity 70    
Precipitation  
Precipitation T in 0.05 in 0.86 in (1946)
Month to date precipitation 0.96 0.28  
Year to date precipitation 26.42 25.91  
Snow  
Snow T in 0.10 in 3.40 in (1990)
Month to date snowfall 0.5 0.5  
Since 1 July snowfall 0.5 1.5  
Since 1 September snowfall 0.5 1.5  
Snow Depth 0.00 in    
Sea Level Pressure  
Sea Level Pressure 30.21 in    
Wind  
Wind Speed 8 mph (NW)    
Max Wind Speed 22 mph    
Max Gust Speed 26 mph    
Visibility 10 miles    
Events Snow    
T = Trace of Precipitation, MM = Missing Value Source: NWS Daily Summary

Daily Weather History Graph

Daily Weather History Graph

Search for Another Location

Airport or City:

Trip Planner

Search our weather history database for the weather conditions in past years. The results will help you decide how hot, cold, wet, or windy it might be!

Date:

Astronomy

Nov. 06, 2013 Rise Set
Actual Time 7:05 AM CST 5:12 PM CST
Civil Twilight 6:35 AM CST 5:41 PM CST
Nautical Twilight 6:02 AM CST 6:15 PM CST
Astronomical Twilight 5:29 AM CST 6:48 PM CST
Moon 10:23 AM CST (11/6) 8:16 PM CST (11/6)
Length of Visible Light 11h 06m
Length of Day
10h 06m
Waxing Crescent, 14% of the Moon is Illuminated
Nov 6
Waxing Crescent
Nov 9
First Quarter
Nov 17
Full
Nov 25
Last Quarter
Dec 2
New

Hourly Weather History & Observations

Time (CST) Temp. Windchill Dew Point Humidity Pressure Visibility Wind Dir Wind Speed Gust Speed Precip Events Conditions
12:38 AM 33.8 °F 24.8 °F 30.2 °F 87% 30.10 in 3.0 mi NNW 12.7 mph - 0.00 in Snow Light Snow
12:52 AM 33.1 °F 23.0 °F 30.9 °F 92% 30.14 in 7.0 mi North 15.0 mph - 0.00 in   Overcast
12:58 AM 33.8 °F 23.9 °F 30.2 °F 87% 30.10 in 8.0 mi North 15.0 mph - N/A   Overcast
1:36 AM 33.8 °F 24.8 °F 30.2 °F 87% 30.11 in 10.0 mi NNW 12.7 mph - N/A   Overcast
1:52 AM 33.1 °F 23.0 °F 30.9 °F 92% 30.13 in 10.0 mi NNW 15.0 mph - N/A   Overcast
2:05 AM 33.8 °F 25.3 °F 30.2 °F 87% 30.11 in 8.0 mi NNW 11.5 mph - N/A   Overcast
2:24 AM 33.8 °F 25.8 °F 30.2 °F 87% 30.12 in 9.0 mi NNW 10.4 mph - N/A   Overcast
2:52 AM 33.1 °F 23.9 °F 30.9 °F 92% 30.15 in 10.0 mi NNW 12.7 mph - N/A   Overcast
3:52 AM 33.1 °F 23.9 °F 30.9 °F 92% 30.14 in 10.0 mi NNW 12.7 mph - N/A   Overcast
3:59 AM 33.8 °F 25.3 °F 30.2 °F 87% 30.11 in 10.0 mi NNW 11.5 mph - N/A   Overcast
4:52 AM 33.1 °F 23.9 °F 30.9 °F 92% 30.17 in 10.0 mi NW 12.7 mph - N/A   Mostly Cloudy
5:08 AM 32.0 °F 22.1 °F 30.2 °F 93% 30.14 in 10.0 mi NNW 13.8 mph - N/A   Overcast
5:16 AM 33.8 °F 24.3 °F 30.2 °F 87% 30.14 in 10.0 mi NNW 13.8 mph - N/A   Overcast
5:52 AM 33.1 °F 23.9 °F 30.0 °F 89% 30.19 in 10.0 mi NNW 12.7 mph - N/A   Overcast
6:21 AM 33.8 °F 25.8 °F 30.2 °F 87% 30.15 in 10.0 mi NW 10.4 mph - N/A   Overcast
6:52 AM 33.1 °F 24.9 °F 30.9 °F 92% 30.19 in 10.0 mi NW 10.4 mph - N/A   Overcast
7:52 AM 33.1 °F 24.4 °F 30.0 °F 89% 30.21 in 10.0 mi WNW 11.5 mph - N/A   Overcast
8:52 AM 34.0 °F 26.6 °F 30.9 °F 89% 30.24 in 10.0 mi WNW 9.2 mph - N/A   Overcast
9:52 AM 35.1 °F 29.3 °F 30.9 °F 85% 30.25 in 10.0 mi WNW 6.9 mph - N/A   Overcast
10:26 AM 35.6 °F 27.5 °F 30.2 °F 81% 30.22 in 10.0 mi WNW 11.5 mph - N/A   Overcast
10:52 AM 36.0 °F 29.0 °F 30.9 °F 82% 30.27 in 10.0 mi WNW 9.2 mph - N/A   Overcast
11:52 AM 36.0 °F 29.6 °F 30.9 °F 82% 30.26 in 10.0 mi West 8.1 mph - N/A   Overcast
12:26 PM 37.4 °F 31.4 °F 32.0 °F 81% 30.22 in 10.0 mi West 8.1 mph - N/A   Overcast
12:37 PM 37.4 °F 32.1 °F 30.2 °F 75% 30.21 in 10.0 mi WNW 6.9 mph - N/A   Overcast
12:52 PM 37.9 °F 32.7 °F 32.0 °F 79% 30.25 in 10.0 mi NW 6.9 mph - N/A   Overcast
1:52 PM 41.0 °F 36.4 °F 32.0 °F 70% 30.25 in 10.0 mi West 6.9 mph - N/A   Mostly Cloudy
2:52 PM 41.0 °F 35.2 °F 32.0 °F 70% 30.24 in 10.0 mi WNW 9.2 mph - N/A   Clear
3:52 PM 39.9 °F 36.7 °F 32.0 °F 73% 30.24 in 10.0 mi West 4.6 mph - N/A   Mostly Cloudy
4:52 PM 39.0 °F 34.8 °F 32.0 °F 76% 30.24 in 10.0 mi NW 5.8 mph - N/A   Overcast
5:30 PM 37.4 °F 33.8 °F 30.2 °F 75% 30.22 in 10.0 mi West 4.6 mph - N/A   Scattered Clouds
5:52 PM 35.1 °F 32.2 °F 30.0 °F 82% 30.26 in 10.0 mi West 3.5 mph - N/A   Clear
6:52 PM 33.1 °F - 30.0 °F 89% 30.26 in 10.0 mi Calm Calm - N/A   Clear
7:52 PM 30.9 °F - 28.9 °F 92% 30.27 in 10.0 mi Calm Calm - N/A   Clear
8:52 PM 30.0 °F 26.5 °F 28.9 °F 96% 30.27 in 10.0 mi West 3.5 mph - N/A   Clear
9:52 PM 28.9 °F 25.2 °F 27.0 °F 92% 30.28 in 10.0 mi WSW 3.5 mph - N/A   Clear
10:52 PM 28.9 °F 23.9 °F 27.0 °F 92% 30.28 in 10.0 mi SSW 4.6 mph - N/A   Clear
11:52 PM 28.9 °F 25.2 °F 27.0 °F 92% 30.29 in 10.0 mi SW 3.5 mph - N/A   Clear